ISARA (43050 NORAD) Tracking and Keplerian Element Data

This shows tracking and keplerian element data for the satellite.

Feedback or suggestion? Click here.




ElementValue
Catalog43050
NameISARA
Epoch Orbit21496
Epoch Day269.65563616
Epoch Year2021
RAAN253.7558
Inclination51.6298
Eccentricity0.0003093
Argument of Perigee57.7084
Mean Anonmoly302.421
Mean Motion15.62375374
Decay Rate0.0004472
L11 43050U 17071P 21269.65563616 .00044720 00000-0 49808-3 0 9995
L22 43050 51.6298 253.7558 0003093 57.7084 302.4210 15.62375374214963

Live tracking and technical data element details for ISARA (NORAD 43050). ISARA can be tracked NOW for your location showing map with azimuth and elevation plus other details from your city location.

Track the satellite on the map from your city or location and see movement details for azimuth, elevation, latitude, longitude, range, height, and movement on the map or in text.







IsCatalogInMostPopularTable: catalog: 43050, numindb: 585
Update: records affected: 1



GetName: 43050 ISARA

Hit Count: updated at: Tue, 28 Sep 2021 15:43:10 GMT